Regional Weather Roundup
Issued by NWS

Home | Current Version | Previous Version | Text Only | Print | Product List | Glossary Off
Versions: 1 2 3 4 5 6 7 8 9 10 11 12 13 14 15 16 17 18 19 20 21 22 23 24 25 26 27 28 29 30 31 32 33 34 35 36 37 38 39 40 41 42 43 44 45 46 47 48 49 50

000
ASUS43 KIND 030709
RWRIN

WEATHER ROUNDUP FOR INDIANA
NATIONAL WEATHER SERVICE INDIANAPOLIS IN
300 AM EDT TUE MAY 03 2016

NOTE: "FAIR" INDICATES FEW OR NO CLOUDS BELOW 12,000 FEET WITH NO
SIGNIFICANT WEATHER AND/OR OBSTRUCTIONS TO VISIBILITY.

* - STATION DOES NOT REPORT WEATHER SUCH AS PRECIPITATION OR FOG.

+ - STATION NOT QUALITY CONTROLLED BY THE NATIONAL WEATHER SERVICE.
    USE DATA WITH CAUTION...ESPECIALLY DEWPOINT AND RELATIVE
    HUMIDITY OBSERVATIONS.

INZ001>003-010>013-019-020-030800-
NORTHWEST INDIANA

CITY           SKY/WX    TMP DP  RH WIND       PRES   REMARKS
GARY /AIRPORT/ FOG       40  40 100 CALM      29.99F VSB 1/4
KNOX *+        CLOUDY    46  41  81 CALM      29.97F
LA PORTE +     CLOUDY    47  44  87 CALM      29.98F
MICHIGAN CITY+ CLOUDY    39  39 100 CALM      29.99S
MONTICELLO +   CLOUDY    48  44  86 N6        29.96F
RENSSELAER +   CLOUDY    46  43  87 NW3       29.98F
VALPARAISO     CLOUDY    47  40  76 NW3       29.98F

$$

LMZ046-743>745-030800-
SOUTHERN LAKE MICHIGAN

STATION/POSITION TIME  TEMP    WIND        PRES    WAVE
                       AIR SEA DIR/SP/G            HT
                 (UTC) (F)     (DEG/KT/KT) (MB)    (FT)
BURNS HARBOR     0600   46     310/  4/  5 1016.3S
MICHIGAN CITY    0600   44     240/  4/  5   N/A

$$

INZ004-005-014>016-021>024-030800-
NORTH CENTRAL INDIANA

CITY           SKY/WX    TMP DP  RH WIND       PRES   REMARKS
GOSHEN         CLOUDY    48  46  93 CALM      29.97F
LOGANSPORT +   CLOUDY    48  48 100 N5        29.96F FOG
PERU/GRISSOM   LGT RAIN  50  50 100 N7        29.93F
ROCHESTER +    MOCLDY    52  50  93 N3        29.96F
SOUTH BEND     CLOUDY    46  43  89 CALM      29.98F
WARSAW +       CLOUDY    46  46 100 CALM      29.96F FOG

$$

INZ006>009-017-018-025>027-030800-
NORTHEAST INDIANA

CITY           SKY/WX    TMP DP  RH WIND       PRES   REMARKS
ANGOLA *+      CLOUDY    48  39  71 CALM      29.96F
AUBURN +       RAIN      48  46  93 CALM      29.97F
FORT WAYNE     DRIZZLE   49  47  93 N6        29.96F FOG
HUNTINGTON +   CLOUDY   N/A N/A N/A N3        29.95F FOG

$$

INZ028-029-035-036-043>045-051>053-030800-
WEST CENTRAL INDIANA

CITY           SKY/WX    TMP DP  RH WIND       PRES   REMARKS
CRAWFORDSVL +  CLOUDY    48  48 100 N6        29.95F FOG
GREENCASTLE +  CLOUDY    50  50 100 CALM      29.94F
LAFAYETTE      CLOUDY    49  45  86 N6        29.96F
TERRE HAUTE    CLOUDY    52  49  89 NW5       29.95F

$$

INZ030>032-037>040-046>048-054>057-064-065-030800-
CENTRAL INDIANA

CITY           SKY/WX    TMP DP  RH WIND       PRES   REMARKS
CP ATTERBURY + CLOUDY    52  50  93 CALM      29.93F
FISHERS *+     CLOUDY    50  50 100 CALM      29.93F
FRANKFORT +      N/A     50  50 100 CALM      29.96F FOG
GREENWOOD *+   CLOUDY    52  52 100 NW3       29.93F
INDIANAPOLIS   LGT RAIN  51  49  92 NW6       29.91F FOG
-EAGLE CREEK   CLOUDY    51  50  96 N8        29.92F FOG
KOKOMO *+      CLOUDY    50  46  87 N7        29.94F
MARION +       CLOUDY    49  48  95 NE6       29.95F FOG
SHELBYVILLE    RAIN      55  51  86 N7        29.91F FOG
ZIONSVILLE +   CLOUDY    49  49  98 N6        29.94F FOG

$$

INZ033-034-041-042-049-050-058-059-030800-
EAST CENTRAL INDIANA

CITY           SKY/WX    TMP DP  RH WIND       PRES   REMARKS
MUNCIE         CLOUDY    52  48  86 NE7       29.93F

$$

INZ060-061-067>069-081>083-085>088-030800-
SOUTHWEST INDIANA

CITY           SKY/WX    TMP DP  RH WIND       PRES   REMARKS
EVANSVILLE     CLOUDY    54  49  83 CALM      29.96F
HUNTINGBURG *+ PTCLDY    50  46  87 W6        29.95F
WASHINGTON +   MOCLDY    52  52 100 W3        29.95F

$$

INZ062-063-066-070>080-084-089>092-030800-
SOUTH CENTRAL AND SOUTHEAST INDIANA

CITY           SKY/WX    TMP DP  RH WIND       PRES   REMARKS
BEDFORD +      CLOUDY    50  50 100 CALM      29.93F
BLOOMINGTON    CLOUDY    52  49  89 NW5       29.93F
MADISON *+     CLOUDY    54  50  87 NW3       29.93F
NORTH VERNON + MOCLDY   N/A N/A N/A CALM      29.92F
SEYMOUR +      CLOUDY    54  50  87 CALM      29.92F

$$





USA.gov is the U.S. government's official web portal to all federal, state and local government web resources and services.